Home   Weather   Waco   Past weeks

Flag for USA Past Weather in Waco, Texas, USA — Yesterday and Last 2 Weeks

Now
67 °F

Sunny.


Feels Like: 67 °F
Forecast: 40 / 68 °F
Wind: 13 mph from South

Location: Waco Regional Airport

Current Time: Jan 23, 2017 at 3:25:52 pm

Latest Report: Jan 23, 2017 at 2:51 pm


Visibility: 10 mi

Pressure: 29.86 "Hg

Humidity: 35%

Dew Point: 38 °F

Location of WacoLocation

Past Weather in Waco — Graph

°F

Waco Temperature Yesterday

Maximum temperature yesterday: 66 °F (at 3:51 pm)
Minimum temperature yesterday: 47 °F (at 11:51 pm)
Average temperature yesterday: 57 °F

High & Low Weather Summary for the Past Weeks

 TemperatureHumidityPressure
High81 °F (Jan 10, 1:51 pm)100% (Jan 14, 2:51 am)30.56 "Hg (Jan 14, 2:51 am)
Low35 °F (Jan 9, 4:51 am)22% (Jan 8, 1:51 pm)29.40 "Hg (Jan 21, 3:51 pm)
Average56 °F80%29.99 "Hg
* Reported Jan 8 1:51 pm — Jan 23 1:51 pm, Waco, Weather by CustomWeather, © 2017

Note: Actual official high and low records may vary slightly from our data, if they occured in-between our weather recording intervals... More about our weather records

Advertising

Waco Weather History for the Previous 24 Hours

Scroll right to see more
 ConditionsComfort  
Time TempWeatherWind HumidityBarometerVisibility
1:51 pm
Mon, Jan 23
65 °FSunny.5 mph34%29.89 "Hg10 mi
12:51 pm62 °FSunny.6 mph35%29.94 "Hg10 mi
11:51 am59 °FSunny.9 mph38%29.97 "Hg10 mi
10:51 am56 °FSunny.6 mph44%30.01 "Hg10 mi
9:51 am54 °FSunny.No wind53%30.03 "Hg10 mi
8:51 am47 °FSunny.6 mph69%30.02 "Hg10 mi
7:51 am37 °FSunny.5 mph93%30.01 "Hg10 mi
6:51 am40 °FClear.No wind80%29.99 "Hg10 mi
5:51 am39 °FClear.8 mph82%29.98 "Hg10 mi
4:51 am40 °FClear.9 mph83%29.98 "Hg10 mi
3:51 am44 °FClear.8 mph73%29.96 "Hg10 mi
2:51 am37 °FClear.7 mph89%29.97 "Hg10 mi
1:51 am45 °FClear.5 mph68%29.96 "Hg10 mi
12:51 am48 °FClear.9 mph61%29.96 "Hg10 mi
11:51 pm
Sun, Jan 22
47 °FClear.8 mph66%29.97 "Hg10 mi
10:51 pm52 °FClear.8 mph53%29.94 "Hg10 mi
9:51 pm51 °FClear.10 mph59%29.94 "Hg10 mi
8:51 pm53 °FClear.9 mph52%29.91 "Hg10 mi
7:51 pm56 °FClear.12 mph47%29.89 "Hg10 mi
6:51 pm60 °FClear.13 mph38%29.86 "Hg10 mi
5:51 pm62 °FSunny.22 mph37%29.82 "Hg10 mi
4:51 pm65 °FSunny.24 mph36%29.78 "Hg10 mi
3:51 pm66 °FSunny.23 mph36%29.75 "Hg10 mi
Weather by CustomWeather, © 2017

See weather overviewHow to use our weather pages